| time (UTC) | temp F | wind direction | speed MPH | gust MPH | rain 1hr in | rain 24hr in | rain mn in | humidity % | barometer mb |
| 20260901112908 | 65 | 305 | 3.0 | 5.0 | 0.00 | 0.10 | 0.01 | 80 | 1022.1 |
| 20260901112405 | 65 | 253 | 3.0 | 6.0 | 0.00 | 0.10 | 0.01 | 79 | 1022.1 |
| 20260901111905 | 65 | 286 | 4.0 | 7.0 | 0.00 | 0.10 | 0.01 | 79 | 1022.1 |
| 20260901111405 | 65 | 348 | 5.0 | 6.0 | 0.00 | 0.10 | 0.01 | 79 | 1022.1 |
| 20260901104405 | 67 | 253 | 7.0 | 10.0 | 0.00 | 0.10 | 0.01 | 70 | 1022.0 |
| 20260901103906 | 68 | 267 | 6.0 | 16.0 | 0.00 | 0.10 | 0.01 | 71 | 1022.0 |
| 20260901102906 | 67 | 255 | 6.0 | 9.0 | 0.00 | 0.10 | 0.01 | 73 | 1022.0 |
| 20260901101405 | 67 | 224 | 6.0 | 14.0 | 0.00 | 0.10 | 0.01 | 74 | 1022.1 |
| 20260901100406 | 66 | 214 | 7.0 | 10.0 | 0.00 | 0.10 | 0.01 | 77 | 1022.1 |
| 20260901094405 | 64 | 249 | 5.0 | 12.0 | 0.00 | 0.10 | 0.01 | 80 | 1022.1 |
| 20260901093906 | 64 | 255 | 6.0 | 9.0 | 0.00 | 0.10 | 0.01 | 81 | 1022.2 |
| 20260901092906 | 64 | 250 | 5.0 | 10.0 | 0.00 | 0.10 | 0.01 | 83 | 1022.2 |
| 20260901091906 | 64 | 232 | 5.0 | 7.0 | 0.00 | 0.10 | 0.01 | 84 | 1022.2 |
| 20260901091407 | 64 | 206 | 5.0 | 12.0 | 0.00 | 0.10 | 0.01 | 84 | 1022.2 |
| 20260901085907 | 63 | 214 | 7.0 | 13.0 | 0.00 | 0.10 | 0.01 | 83 | 1022.1 |
| 20260901085405 | 63 | 217 | 7.0 | 12.0 | 0.00 | 0.10 | 0.01 | 85 | 1022.1 |
| 20260901084905 | 63 | 230 | 6.0 | 12.0 | 0.00 | 0.10 | 0.01 | 85 | 1022.1 |
| 20260901082907 | 62 | 203 | 7.0 | 15.0 | 0.00 | 0.10 | 0.01 | 86 | 1022.0 |
| 20260901081905 | 62 | 230 | 7.0 | 14.0 | 0.01 | 0.10 | 0.01 | 87 | 1021.8 |
| 20260901081406 | 62 | 234 | 7.0 | 12.0 | 0.01 | 0.10 | 0.01 | 88 | 1021.8 |
| 20260901080405 | 62 | 221 | 8.0 | 13.0 | 0.01 | 0.10 | 0.01 | 88 | 1021.7 |
| 20260901075907 | 61 | 211 | 9.0 | 16.0 | 0.01 | 0.10 | 0.01 | 88 | 1021.7 |
| 20260901074905 | 61 | 232 | 9.0 | 15.0 | 0.01 | 0.10 | 0.01 | 87 | 1021.7 |
| 20260901073905 | 62 | 243 | 7.0 | 17.0 | 0.01 | 0.10 | 0.01 | 87 | 1021.6 |
| 20260901073405 | 62 | 248 | 6.0 | 17.0 | 0.01 | 0.10 | 0.01 | 87 | 1021.6 |
| 20260901072905 | 62 | 247 | 7.0 | 15.0 | 0.01 | 0.10 | 0.01 | 88 | 1021.6 |
| 20260901070404 | 62 | 223 | 8.0 | 13.0 | 0.00 | 0.09 | 0.00 | 90 | 1021.4 |
| 20260901064405 | 61 | 215 | 5.0 | 16.0 | 0.00 | 0.09 | 0.00 | 91 | 1021.4 |
| 20260901061905 | 61 | 231 | 6.0 | 9.0 | 0.00 | 0.09 | 0.00 | 91 | 1021.4 |
| 20260901061405 | 61 | 241 | 6.0 | 8.0 | 0.00 | 0.09 | 0.00 | 91 | 1021.4 |
| 20260901060905 | 61 | 252 | 5.0 | 10.0 | 0.00 | 0.09 | 0.00 | 91 | 1021.1 |
| 20260901060406 | 61 | 199 | 5.0 | 10.0 | 0.00 | 0.09 | 0.00 | 91 | 1021.1 |
| 20260901055417 | 61 | 224 | 7.0 | 8.0 | 0.00 | 0.09 | 0.00 | 90 | 1021.1 |
| 20260901052907 | 61 | 215 | 5.0 | 13.0 | 0.00 | 0.09 | 0.00 | 90 | 1021.0 |
| 20260901052405 | 61 | 225 | 5.0 | 9.0 | 0.00 | 0.09 | 0.00 | 90 | 1020.9 |
| 20260901051905 | 61 | 230 | 5.0 | 12.0 | 0.00 | 0.09 | 0.00 | 90 | 1020.9 |
| 20260901051405 | 61 | 227 | 5.0 | 10.0 | 0.00 | 0.09 | 0.00 | 90 | 1020.9 |
| 20260901050905 | 61 | 261 | 5.0 | 10.0 | 0.00 | 0.09 | 0.00 | 90 | 1020.8 |
| 20260901050405 | 61 | 221 | 5.0 | 8.0 | 0.00 | 0.09 | 0.00 | 90 | 1020.8 |
| 20260901045906 | 60 | 213 | 5.0 | 6.0 | 0.00 | 0.09 | 0.00 | 90 | 1020.8 |
| 20260901044905 | 60 | 222 | 6.0 | 8.0 | 0.00 | 0.09 | 0.00 | 90 | 1020.8 |
| 20260901044405 | 60 | 190 | 6.0 | 9.0 | 0.00 | 0.09 | 0.00 | 90 | 1020.8 |
| 20260901041405 | 60 | 194 | 5.0 | 9.0 | 0.00 | 0.09 | 0.00 | 91 | 1020.4 |
| 20260901035907 | 60 | 177 | 5.0 | 7.0 | 0.00 | 0.09 | 0.00 | 91 | 1020.4 |
| 20260901035405 | 60 | 171 | 6.0 | 8.0 | 0.00 | 0.09 | 0.00 | 91 | 1020.3 |
| 20260901034905 | 60 | 174 | 6.0 | 8.0 | 0.00 | 0.09 | 0.00 | 91 | 1020.3 |
| 20260901033905 | 60 | 191 | 5.0 | 13.0 | 0.00 | 0.09 | 0.00 | 91 | 1020.3 |
| 20260901032907 | 60 | 197 | 5.0 | 9.0 | 0.00 | 0.09 | 0.00 | 90 | 1020.3 |
| 20260901031405 | 60 | 222 | 5.0 | 9.0 | 0.00 | 0.09 | 0.00 | 90 | 1020.3 |
| 20260901030905 | 60 | 204 | 3.0 | 12.0 | 0.00 | 0.09 | 0.00 | 90 | 1020.4 |
| 20260901025905 | 60 | 235 | 5.0 | 6.0 | 0.00 | 0.09 | 0.00 | 90 | 1020.4 |
| 20260901023905 | 60 | 216 | 5.0 | 10.0 | 0.00 | 0.09 | 0.00 | 89 | 1020.4 |
| 20260901023404 | 60 | 222 | 5.0 | 10.0 | 0.00 | 0.09 | 0.00 | 89 | 1020.4 |
| 20260901021905 | 60 | 254 | 5.0 | 8.0 | 0.00 | 0.09 | 0.00 | 89 | 1020.1 |
| 20260901020905 | 60 | 214 | 3.0 | 8.0 | 0.00 | 0.09 | 0.00 | 89 | 1020.1 |
| 20260901015404 | 60 | 202 | 5.0 | 6.0 | 0.00 | 0.09 | 0.00 | 89 | 1020.2 |
| 20260901014904 | 60 | 225 | 5.0 | 9.0 | 0.00 | 0.09 | 0.00 | 89 | 1020.2 |
| 20260901014405 | 60 | 208 | 5.0 | 12.0 | 0.00 | 0.09 | 0.00 | 89 | 1020.2 |
| 20260901012905 | 60 | 208 | 3.0 | 8.0 | 0.00 | 0.09 | 0.00 | 88 | 1020.1 |
| 20260901011905 | 60 | 247 | 3.0 | 6.0 | 0.00 | 0.09 | 0.00 | 88 | 1020.0 |
| 20260901011405 | 60 | 216 | 3.0 | 6.0 | 0.00 | 0.09 | 0.00 | 88 | 1020.0 |
| 20260901010905 | 60 | 226 | 3.0 | 8.0 | 0.00 | 0.09 | 0.00 | 89 | 1020.1 |
| 20260901010405 | 60 | 216 | 3.0 | 9.0 | 0.00 | 0.09 | 0.00 | 89 | 1020.1 |
| 20260901004905 | 60 | 256 | 3.0 | 6.0 | 0.00 | 0.10 | 0.00 | 89 | 1020.0 |
| 20260901004405 | 60 | 242 | 3.0 | 8.0 | 0.00 | 0.10 | 0.00 | 89 | 1020.0 |
| 20260901003905 | 60 | 236 | 3.0 | 6.0 | 0.00 | 0.11 | 0.00 | 88 | 1019.9 |
| 20260901001906 | 60 | 275 | 4.0 | 6.0 | 0.00 | 0.11 | 0.00 | 88 | 1019.9 |
| 20260901001411 | 60 | 243 | 5.0 | 8.0 | 0.00 | 0.11 | 0.00 | 88 | 1019.9 |
| 20260901000407 | 60 | 224 | 3.0 | 8.0 | 0.00 | 0.11 | 0.00 | 87 | 1020.0 |
| 20260831235906 | 60 | 262 | 3.0 | 8.0 | 0.00 | 0.11 | 0.00 | 87 | 1020.0 |
| 20260831235405 | 60 | 239 | 3.0 | 8.0 | 0.00 | 0.11 | 0.00 | 87 | 1020.0 |
| 20260831233905 | 61 | 220 | 6.0 | 9.0 | 0.00 | 0.11 | 0.00 | 87 | 1020.1 |
| 20260831232405 | 60 | 234 | 5.0 | 10.0 | 0.00 | 0.11 | 0.00 | 87 | 1020.0 |
| 20260831231904 | 60 | 231 | 5.0 | 9.0 | 0.00 | 0.11 | 0.00 | 87 | 1020.0 |
| 20260831230904 | 61 | 212 | 5.0 | 8.0 | 0.00 | 0.11 | 0.00 | 87 | 1020.1 |
| 20260831230405 | 61 | 205 | 5.0 | 9.0 | 0.00 | 0.11 | 0.00 | 88 | 1020.1 |
| 20260831225906 | 61 | 220 | 5.0 | 9.0 | 0.00 | 0.11 | 0.00 | 88 | 1020.1 |
| 20260831225405 | 61 | 232 | 5.0 | 8.0 | 0.00 | 0.11 | 0.00 | 88 | 1020.1 |
| 20260831224913 | 61 | 198 | 3.0 | 8.0 | 0.00 | 0.11 | 0.00 | 87 | 1020.1 |
| 20260831224406 | 61 | 203 | 3.0 | 7.0 | 0.00 | 0.11 | 0.00 | 87 | 1020.1 |
| 20260831223910 | 61 | 194 | 4.0 | 7.0 | 0.00 | 0.11 | 0.00 | 87 | 1020.1 |
| 20260831222907 | 61 | 212 | 5.0 | 8.0 | 0.00 | 0.11 | 0.00 | 87 | 1020.1 |
| 20260831220405 | 61 | 208 | 0.0 | 3.0 | 0.00 | 0.11 | 0.00 | 88 | 1019.9 |
| 20260831213904 | 61 | 233 | 2.0 | 5.0 | 0.00 | 0.11 | 0.11 | 89 | 1019.7 |
| 20260831211904 | 61 | 259 | 2.0 | 3.0 | 0.00 | 0.11 | 0.11 | 92 | 1019.6 |
| 20260831211405 | 60 | 309 | 2.0 | 3.0 | 0.00 | 0.11 | 0.11 | 92 | 1019.6 |
| 20260831210905 | 60 | 313 | 2.0 | 5.0 | 0.00 | 0.11 | 0.11 | 93 | 1019.5 |
| 20260831210405 | 60 | 279 | 2.0 | 6.0 | 0.00 | 0.11 | 0.11 | 94 | 1019.5 |
| 20260831204405 | 59 | 127 | 0.0 | 5.0 | 0.00 | 0.11 | 0.11 | 95 | 1019.4 |
| 20260831203905 | 59 | 88 | 0.0 | 2.0 | 0.00 | 0.11 | 0.11 | 95 | 1019.3 |
| 20260831202906 | 58 | 90 | 0.0 | 1.0 | 0.00 | 0.11 | 0.11 | 95 | 1019.3 |
| 20260831202405 | 58 | 86 | 0.0 | 0.0 | 0.00 | 0.11 | 0.11 | 95 | 1019.1 |
| 20260831195907 | 58 | 109 | 0.0 | 2.0 | 0.00 | 0.11 | 0.11 | 93 | 1019.0 |
| 20260831194905 | 58 | 168 | 0.0 | 1.0 | 0.00 | 0.11 | 0.11 | 92 | 1018.7 |
| 20260831193905 | 58 | 168 | 0.0 | 0.0 | 0.00 | 0.11 | 0.11 | 91 | 1018.5 |
| 20260831193404 | 59 | 168 | 0.0 | 0.0 | 0.00 | 0.11 | 0.11 | 91 | 1018.5 |
| 20260831191405 | 60 | 168 | 1.0 | 0.0 | 0.05 | 0.11 | 0.11 | 90 | 1018.3 |
| 20260831190405 | 60 | 169 | 1.0 | 3.0 | 0.05 | 0.11 | 0.11 | 89 | 1018.2 |
| 20260831185904 | 61 | 187 | 2.0 | 3.0 | 0.05 | 0.11 | 0.11 | 89 | 1018.2 |
| 20260831183904 | 61 | 245 | 5.0 | 8.0 | 0.07 | 0.11 | 0.11 | 88 | 1017.8 |
| 20260831182906 | 61 | 286 | 5.0 | 15.0 | 0.07 | 0.11 | 0.11 | 88 | 1017.8 |
| 20260831180405 | 62 | 237 | 5.0 | 12.0 | 0.02 | 0.06 | 0.06 | 86 | 1017.4 |
| 20260831175405 | 62 | 321 | 5.0 | 8.0 | 0.01 | 0.05 | 0.05 | 84 | 1017.2 |
| 20260831174405 | 63 | 297 | 7.0 | 8.0 | 0.00 | 0.04 | 0.04 | 83 | 1017.2 |
| 20260831173405 | 64 | 319 | 7.0 | 14.0 | 0.00 | 0.04 | 0.04 | 82 | 1016.9 |
| 20260831172906 | 65 | 328 | 7.0 | 13.0 | 0.00 | 0.04 | 0.04 | 80 | 1016.9 |
| 20260831172405 | 66 | 324 | 8.0 | 15.0 | 0.00 | 0.04 | 0.04 | 76 | 1016.4 |
| 20260831171405 | 67 | 268 | 6.0 | 18.0 | 0.00 | 0.04 | 0.04 | 67 | 1016.4 |
| 20260831170905 | 67 | 233 | 6.0 | 16.0 | 0.00 | 0.04 | 0.04 | 67 | 1016.2 |
| 20260831165405 | 68 | 306 | 8.0 | 22.0 | 0.01 | 0.04 | 0.04 | 66 | 1016.0 |
| 20260831162908 | 68 | 263 | 6.0 | 14.0 | 0.01 | 0.04 | 0.04 | 68 | 1015.8 |
| 20260831161905 | 67 | 261 | 7.0 | 15.0 | 0.01 | 0.04 | 0.04 | 69 | 1015.8 |
| 20260831161405 | 67 | 308 | 8.0 | 14.0 | 0.01 | 0.04 | 0.04 | 71 | 1015.8 |
| 20260831160904 | 67 | 262 | 7.0 | 15.0 | 0.01 | 0.04 | 0.04 | 72 | 1015.6 |
| 20260831160404 | 67 | 314 | 7.0 | 16.0 | 0.01 | 0.04 | 0.04 | 72 | 1015.6 |
| 20260831155906 | 67 | 311 | 7.0 | 28.0 | 0.01 | 0.04 | 0.04 | 70 | 1015.6 |
| 20260831155405 | 67 | 318 | 7.0 | 13.0 | 0.00 | 0.03 | 0.03 | 68 | 1015.5 |
| 20260831154405 | 67 | 301 | 5.0 | 13.0 | 0.00 | 0.03 | 0.03 | 68 | 1015.5 |
| 20260831153404 | 67 | 295 | 7.0 | 8.0 | 0.00 | 0.03 | 0.03 | 69 | 1015.6 |
| 20260831152905 | 67 | 277 | 6.0 | 9.0 | 0.00 | 0.03 | 0.03 | 70 | 1015.6 |
| 20260831151904 | 67 | 237 | 9.0 | 18.0 | 0.00 | 0.03 | 0.03 | 71 | 1015.5 |
| 20260831144404 | 67 | 253 | 10.0 | 23.0 | 0.00 | 0.03 | 0.03 | 71 | 1015.2 |
| 20260831143405 | 68 | 249 | 8.0 | 14.0 | 0.00 | 0.03 | 0.03 | 70 | 1014.9 |
| 20260831142905 | 68 | 260 | 8.0 | 14.0 | 0.00 | 0.03 | 0.03 | 69 | 1014.9 |
| 20260831141405 | 67 | 242 | 8.0 | 14.0 | 0.00 | 0.03 | 0.03 | 70 | 1014.9 |
| 20260831125906 | 68 | 234 | 9.0 | 24.0 | 0.00 | 0.03 | 0.03 | 70 | 1013.9 |
| 20260831124406 | 67 | 179 | 8.0 | 7.0 | 0.00 | 0.03 | 0.03 | 80 | 1013.7 |
| 20260831123404 | 67 | 179 | 9.0 | 7.0 | 0.01 | 0.03 | 0.03 | 80 | 1013.8 |
| 20260831121905 | 67 | 227 | 10.0 | 23.0 | 0.01 | 0.03 | 0.03 | 79 | 1013.7 |
| 20260831121404 | 67 | 222 | 10.0 | 17.0 | 0.01 | 0.03 | 0.03 | 77 | 1013.7 |
| 20260831120905 | 67 | 197 | 9.0 | 18.0 | 0.01 | 0.03 | 0.03 | 80 | 1013.8 |
| 20260831115905 | 66 | 215 | 11.0 | 18.0 | 0.01 | 0.03 | 0.03 | 83 | 1013.8 |
| 20260831115404 | 66 | 210 | 12.0 | 14.0 | 0.01 | 0.03 | 0.03 | 85 | 1013.9 |
| 20260831114406 | 65 | 212 | 10.0 | 30.0 | 0.01 | 0.03 | 0.03 | 82 | 1013.9 |
| 20260831113905 | 67 | 213 | 10.0 | 21.0 | 0.01 | 0.03 | 0.03 | 74 | 1013.5 |